Year,Month,Day,Hour,Minute,Value (Times are PST for windgust in km/hr)
2021,08,04,00,11,1.60
2021,08,04,00,12,1.60
2021,08,04,00,13,1.60
2021,08,04,00,23,1.60
2021,08,04,00,24,3.20
2021,08,04,00,25,3.20
2021,08,04,00,26,1.60
2021,08,04,00,27,1.60
2021,08,04,00,28,6.40
2021,08,04,00,29,6.40
2021,08,04,00,31,1.60
2021,08,04,00,32,1.60
2021,08,04,00,39,1.60
2021,08,04,00,40,1.60
2021,08,04,00,43,4.80
2021,08,04,00,44,3.20
2021,08,04,00,45,1.60
2021,08,04,00,46,1.60
2021,08,04,00,47,3.20
2021,08,04,00,48,1.60
2021,08,04,00,49,3.20
2021,08,04,00,50,3.20
2021,08,04,00,51,1.60
2021,08,04,00,53,3.20
2021,08,04,00,55,1.60
2021,08,04,00,56,1.60
2021,08,04,01,20,1.60
2021,08,04,01,21,1.60
2021,08,04,01,22,1.60
2021,08,04,01,23,1.60
2021,08,04,01,24,1.60
2021,08,04,01,25,3.20
2021,08,04,01,26,3.20
2021,08,04,01,27,1.60
2021,08,04,01,28,3.20
2021,08,04,01,29,6.40
2021,08,04,01,30,6.40
2021,08,04,01,31,4.80
2021,08,04,01,32,6.40
2021,08,04,01,33,3.20
2021,08,04,01,34,4.80
2021,08,04,01,35,1.60
2021,08,04,01,36,4.80
2021,08,04,01,37,3.20
2021,08,04,01,38,4.80
2021,08,04,01,39,6.40
2021,08,04,01,40,6.40
2021,08,04,01,42,4.80
2021,08,04,01,43,4.80
2021,08,04,01,44,3.20
2021,08,04,01,46,3.20
2021,08,04,01,47,3.20
2021,08,04,01,48,1.60
2021,08,04,01,49,1.60
2021,08,04,01,50,1.60
2021,08,04,02,02,3.20
2021,08,04,02,03,3.20
2021,08,04,02,08,1.60
2021,08,04,02,09,1.60
2021,08,04,02,25,1.60
2021,08,04,02,37,1.60
2021,08,04,02,55,1.60
2021,08,04,02,56,3.20
2021,08,04,02,57,3.20
2021,08,04,02,58,1.60
2021,08,04,02,59,1.60
2021,08,04,03,00,3.20
2021,08,04,03,01,3.20
2021,08,04,03,02,1.60
2021,08,04,04,53,1.60
2021,08,04,04,54,1.60
2021,08,04,04,56,1.60
2021,08,04,04,57,1.60
2021,08,04,05,43,1.60
2021,08,04,07,10,1.60
2021,08,04,07,12,1.60
2021,08,04,07,13,1.60
2021,08,04,07,15,1.60
2021,08,04,07,18,1.60
2021,08,04,07,19,1.60
2021,08,04,07,20,1.60
2021,08,04,07,21,1.60
2021,08,04,07,22,1.60
2021,08,04,07,23,1.60
2021,08,04,07,24,1.60
2021,08,04,07,25,1.60
2021,08,04,07,26,1.60
2021,08,04,07,31,1.60
2021,08,04,07,32,3.20
2021,08,04,07,33,3.20
2021,08,04,07,34,1.60
2021,08,04,07,35,1.60
2021,08,04,07,36,1.60
2021,08,04,07,37,1.60
2021,08,04,07,38,1.60
2021,08,04,07,39,1.60
2021,08,04,07,40,1.60
2021,08,04,07,41,1.60
2021,08,04,07,42,1.60
2021,08,04,07,43,1.60
2021,08,04,07,44,1.60
2021,08,04,07,45,1.60
2021,08,04,07,46,1.60
2021,08,04,07,47,1.60
2021,08,04,07,48,1.60
2021,08,04,07,49,1.60
2021,08,04,07,50,3.20
2021,08,04,07,51,1.60
2021,08,04,07,56,1.60
2021,08,04,07,57,1.60
2021,08,04,07,58,1.60
2021,08,04,07,59,3.20
2021,08,04,08,04,3.20
2021,08,04,08,05,1.60
2021,08,04,08,06,1.60
2021,08,04,08,09,1.60
2021,08,04,08,10,3.20
2021,08,04,08,11,1.60
2021,08,04,08,12,3.20
2021,08,04,08,13,6.40
2021,08,04,08,14,4.80
2021,08,04,08,15,4.80
2021,08,04,08,16,1.60
2021,08,04,08,17,1.60
2021,08,04,08,18,1.60
2021,08,04,08,19,3.20
2021,08,04,08,20,4.80
2021,08,04,08,21,4.80
2021,08,04,08,22,1.60
2021,08,04,08,23,4.80
2021,08,04,08,24,1.60
2021,08,04,08,25,3.20
2021,08,04,08,26,3.20
2021,08,04,08,28,3.20
2021,08,04,08,29,6.40
2021,08,04,08,30,3.20
2021,08,04,08,31,1.60
2021,08,04,08,32,3.20
2021,08,04,08,33,4.80
2021,08,04,08,34,4.80
2021,08,04,08,35,3.20
2021,08,04,08,36,1.60
2021,08,04,08,37,1.60
2021,08,04,08,38,4.80
2021,08,04,08,39,3.20
2021,08,04,08,40,3.20
2021,08,04,08,41,1.60
2021,08,04,08,42,3.20
2021,08,04,08,43,4.80
2021,08,04,08,44,1.60
2021,08,04,08,46,1.60
2021,08,04,08,47,1.60
2021,08,04,08,48,1.60
2021,08,04,08,51,3.20
2021,08,04,08,52,4.80
2021,08,04,08,53,1.60
2021,08,04,08,54,1.60
2021,08,04,08,55,3.20
2021,08,04,08,56,3.20
2021,08,04,08,57,1.60
2021,08,04,08,58,1.60
2021,08,04,08,59,4.80
2021,08,04,09,00,3.20
2021,08,04,09,01,3.20
2021,08,04,09,02,3.20
2021,08,04,09,03,1.60
2021,08,04,09,04,1.60
2021,08,04,09,05,4.80
2021,08,04,09,06,3.20
2021,08,04,09,07,3.20
2021,08,04,09,08,4.80
2021,08,04,09,09,3.20
2021,08,04,09,10,3.20
2021,08,04,09,11,1.60
2021,08,04,09,12,3.20
2021,08,04,09,13,8.10
2021,08,04,09,14,6.40
2021,08,04,09,15,8.10
2021,08,04,09,16,8.10
2021,08,04,09,17,1.60
2021,08,04,09,18,3.20
2021,08,04,09,19,6.40
2021,08,04,09,20,4.80
2021,08,04,09,21,1.60
2021,08,04,09,22,3.20
2021,08,04,09,23,6.40
2021,08,04,09,24,4.80
2021,08,04,09,25,4.80
2021,08,04,09,26,6.40
2021,08,04,09,27,3.20
2021,08,04,09,28,1.60
2021,08,04,09,29,3.20
2021,08,04,09,30,1.60
2021,08,04,09,32,1.60
2021,08,04,09,33,3.20
2021,08,04,09,34,9.60
2021,08,04,09,35,6.40
2021,08,04,09,36,6.40
2021,08,04,09,37,4.80
2021,08,04,09,38,4.80
2021,08,04,09,39,4.80
2021,08,04,09,40,4.80
2021,08,04,09,41,6.40
2021,08,04,09,42,4.80
2021,08,04,09,43,3.20
2021,08,04,09,44,1.60
2021,08,04,09,45,6.40
2021,08,04,09,46,1.60
2021,08,04,09,47,4.80
2021,08,04,09,48,6.40
2021,08,04,09,49,4.80
2021,08,04,09,50,3.20
2021,08,04,09,51,1.60
2021,08,04,09,52,1.60
2021,08,04,09,53,4.80
2021,08,04,09,54,1.60
2021,08,04,09,55,4.80
2021,08,04,09,56,3.20
2021,08,04,09,57,4.80
2021,08,04,09,58,3.20
2021,08,04,09,59,1.60
2021,08,04,10,00,4.80
2021,08,04,10,01,6.40
2021,08,04,10,02,3.20
2021,08,04,10,03,3.20
2021,08,04,10,04,6.40
2021,08,04,10,05,3.20
2021,08,04,10,06,3.20
2021,08,04,10,07,9.60
2021,08,04,10,08,8.10
2021,08,04,10,09,8.10
2021,08,04,10,10,11.30
2021,08,04,10,11,11.30
2021,08,04,10,12,11.30
2021,08,04,10,13,6.40
2021,08,04,10,14,9.60
2021,08,04,10,15,11.30
2021,08,04,10,16,6.40
2021,08,04,10,17,6.40
2021,08,04,10,18,6.40
2021,08,04,10,19,9.60
2021,08,04,10,20,8.10
2021,08,04,10,21,11.30
2021,08,04,10,22,8.10
2021,08,04,10,23,8.10
2021,08,04,10,24,4.80
2021,08,04,10,25,9.60
2021,08,04,10,26,9.60
2021,08,04,10,27,4.80
2021,08,04,10,28,3.20
2021,08,04,10,29,6.40
2021,08,04,10,30,6.40
2021,08,04,10,31,8.10
2021,08,04,10,32,8.10
2021,08,04,10,33,3.20
2021,08,04,10,34,4.80
2021,08,04,10,35,8.10
2021,08,04,10,36,1.60
2021,08,04,10,37,8.10
2021,08,04,10,38,6.40
2021,08,04,10,39,8.10
2021,08,04,10,40,6.40
2021,08,04,10,41,8.10
2021,08,04,10,42,8.10
2021,08,04,10,43,6.40
2021,08,04,10,44,6.40
2021,08,04,10,45,8.10
2021,08,04,10,46,9.60
2021,08,04,10,47,6.40
2021,08,04,10,48,8.10
2021,08,04,10,49,4.80
2021,08,04,10,50,3.20
2021,08,04,10,51,3.20
2021,08,04,10,52,8.10
2021,08,04,10,53,6.40
2021,08,04,10,54,8.10
2021,08,04,10,55,3.20
2021,08,04,10,56,1.60
2021,08,04,10,57,8.10
2021,08,04,10,58,11.30
2021,08,04,10,59,11.30
2021,08,04,11,00,4.80
2021,08,04,11,01,6.40
2021,08,04,11,02,6.40
2021,08,04,11,03,3.20
2021,08,04,11,04,3.20
2021,08,04,11,05,4.80
2021,08,04,11,06,1.60
2021,08,04,11,07,3.20
2021,08,04,11,08,8.10
2021,08,04,11,09,8.10
2021,08,04,11,10,8.10
2021,08,04,11,11,4.80
2021,08,04,11,12,4.80
2021,08,04,11,13,8.10
2021,08,04,11,14,3.20
2021,08,04,11,15,3.20
2021,08,04,11,16,11.30
2021,08,04,11,17,9.60
2021,08,04,11,18,6.40
2021,08,04,11,19,6.40
2021,08,04,11,20,8.10
2021,08,04,11,21,4.80
2021,08,04,11,22,8.10
2021,08,04,11,23,3.20
2021,08,04,11,24,4.80
2021,08,04,11,25,4.80
2021,08,04,11,26,3.20
2021,08,04,11,27,4.80
2021,08,04,11,28,6.40
2021,08,04,11,29,6.40
2021,08,04,11,30,8.10
2021,08,04,11,31,9.60
2021,08,04,11,32,9.60
2021,08,04,11,33,8.10
2021,08,04,11,34,8.10
2021,08,04,11,35,1.60
2021,08,04,11,36,3.20
2021,08,04,11,37,4.80
2021,08,04,11,38,4.80
2021,08,04,11,39,9.60
2021,08,04,11,40,9.60
2021,08,04,11,41,9.60
2021,08,04,11,42,6.40
2021,08,04,11,43,8.10
2021,08,04,11,44,8.10
2021,08,04,11,45,6.40
2021,08,04,11,46,9.60
2021,08,04,11,47,9.60
2021,08,04,11,48,8.10
2021,08,04,11,49,9.60
2021,08,04,11,50,6.40
2021,08,04,11,51,3.20
2021,08,04,11,52,8.10
2021,08,04,11,53,3.20
2021,08,04,11,54,11.30
2021,08,04,11,55,14.50
2021,08,04,11,56,11.30
2021,08,04,11,57,11.30
2021,08,04,11,58,17.70
2021,08,04,11,59,17.70
2021,08,04,12,00,16.10
2021,08,04,12,01,17.70
2021,08,04,12,02,17.70
2021,08,04,12,03,17.70
2021,08,04,12,04,17.70
2021,08,04,12,05,19.30
2021,08,04,12,06,11.30
2021,08,04,12,07,12.90
2021,08,04,12,08,12.90
2021,08,04,12,09,16.10
2021,08,04,12,10,17.70
2021,08,04,12,11,22.50
2021,08,04,12,12,16.10
2021,08,04,12,13,16.10
2021,08,04,12,14,16.10
2021,08,04,12,15,16.10
2021,08,04,12,16,17.70
2021,08,04,12,17,9.60
2021,08,04,12,18,11.30
2021,08,04,12,19,11.30
2021,08,04,12,20,14.50
2021,08,04,12,21,12.90
2021,08,04,12,22,17.70
2021,08,04,12,23,16.10
2021,08,04,12,24,11.30
2021,08,04,12,25,14.50
2021,08,04,12,26,17.70
2021,08,04,12,27,11.30
2021,08,04,12,28,11.30
2021,08,04,12,29,9.60
2021,08,04,12,30,16.10
2021,08,04,12,31,9.60
2021,08,04,12,32,17.70
2021,08,04,12,33,11.30
2021,08,04,12,34,11.30
2021,08,04,12,35,12.90
2021,08,04,12,36,9.60
2021,08,04,12,37,4.80
2021,08,04,12,38,9.60
2021,08,04,12,39,9.60
2021,08,04,12,40,16.10
2021,08,04,12,41,14.50
2021,08,04,12,42,9.60
2021,08,04,12,43,9.60
2021,08,04,12,44,8.10
2021,08,04,12,45,17.70
2021,08,04,12,46,12.90
2021,08,04,12,47,11.30
2021,08,04,12,48,19.30
2021,08,04,12,49,17.70
2021,08,04,12,50,9.60
2021,08,04,12,51,17.70
2021,08,04,12,52,17.70
2021,08,04,12,53,14.50
2021,08,04,12,54,9.60
2021,08,04,12,55,4.80
2021,08,04,12,56,16.10
2021,08,04,12,57,16.10
2021,08,04,12,58,8.10
2021,08,04,12,59,9.60
2021,08,04,13,00,11.30
2021,08,04,13,01,12.90
2021,08,04,13,02,9.60
2021,08,04,13,03,8.10
2021,08,04,13,04,14.50
2021,08,04,13,05,9.60
2021,08,04,13,06,9.60
2021,08,04,13,07,11.30
2021,08,04,13,08,4.80
2021,08,04,13,09,12.90
2021,08,04,13,10,9.60
2021,08,04,13,11,8.10
2021,08,04,13,12,8.10
2021,08,04,13,13,12.90
2021,08,04,13,14,11.30
2021,08,04,13,15,11.30
2021,08,04,13,16,14.50
2021,08,04,13,17,8.10
2021,08,04,13,18,9.60
2021,08,04,13,19,12.90
2021,08,04,13,20,14.50
2021,08,04,13,21,12.90
2021,08,04,13,22,9.60
2021,08,04,13,23,8.10
2021,08,04,13,24,9.60
2021,08,04,13,25,11.30
2021,08,04,13,26,8.10
2021,08,04,13,27,8.10
2021,08,04,13,28,8.10
2021,08,04,13,29,6.40
2021,08,04,13,30,9.60
2021,08,04,13,31,11.30
2021,08,04,13,32,8.10
2021,08,04,13,33,12.90
2021,08,04,13,34,14.50
2021,08,04,13,35,14.50
2021,08,04,13,36,14.50
2021,08,04,13,37,11.30
2021,08,04,13,38,19.30
2021,08,04,13,39,19.30
2021,08,04,13,40,17.70
2021,08,04,13,41,17.70
2021,08,04,13,42,16.10
2021,08,04,13,43,12.90
2021,08,04,13,44,16.10
2021,08,04,13,45,12.90
2021,08,04,13,46,17.70
2021,08,04,13,47,19.30
2021,08,04,13,48,17.70
2021,08,04,13,49,14.50
2021,08,04,13,50,14.50
2021,08,04,13,51,11.30
2021,08,04,13,52,9.60
2021,08,04,13,53,11.30
2021,08,04,13,54,14.50
2021,08,04,13,55,11.30
2021,08,04,13,56,16.10
2021,08,04,13,57,12.90
2021,08,04,13,58,8.10
2021,08,04,13,59,16.10
2021,08,04,14,00,16.10
2021,08,04,14,01,16.10
2021,08,04,14,02,16.10
2021,08,04,14,03,14.50
2021,08,04,14,04,9.60
2021,08,04,14,05,9.60
2021,08,04,14,06,11.30
2021,08,04,14,07,16.10
2021,08,04,14,08,16.10
2021,08,04,14,09,9.60
2021,08,04,14,10,11.30
2021,08,04,14,11,16.10
2021,08,04,14,12,12.90
2021,08,04,14,13,16.10
2021,08,04,14,14,17.70
2021,08,04,14,15,20.90
2021,08,04,14,16,17.70
2021,08,04,14,17,17.70
2021,08,04,14,18,14.50
2021,08,04,14,19,9.60
2021,08,04,14,20,11.30
2021,08,04,14,21,16.10
2021,08,04,14,22,14.50
2021,08,04,14,23,11.30
2021,08,04,14,24,6.40
2021,08,04,14,25,14.50
2021,08,04,14,26,9.60
2021,08,04,14,27,9.60
2021,08,04,14,28,17.70
2021,08,04,14,29,9.60
2021,08,04,14,30,8.10
2021,08,04,14,31,16.10
2021,08,04,14,32,14.50
2021,08,04,14,33,11.30
2021,08,04,14,34,8.10
2021,08,04,14,35,9.60
2021,08,04,14,36,11.30
2021,08,04,14,37,4.80
2021,08,04,14,38,6.40
2021,08,04,14,39,6.40
2021,08,04,14,40,9.60
2021,08,04,14,41,12.90
2021,08,04,14,42,16.10
2021,08,04,14,43,12.90
2021,08,04,14,44,11.30
2021,08,04,14,45,8.10
2021,08,04,14,46,9.60
2021,08,04,14,47,9.60
2021,08,04,14,48,11.30
2021,08,04,14,49,8.10
2021,08,04,14,50,9.60
2021,08,04,14,51,14.50
2021,08,04,14,52,11.30
2021,08,04,14,53,9.60
2021,08,04,14,54,9.60
2021,08,04,14,55,12.90
2021,08,04,14,56,17.70
2021,08,04,14,57,9.60
2021,08,04,14,58,6.40
2021,08,04,14,59,9.60
2021,08,04,15,00,9.60
2021,08,04,15,01,14.50
2021,08,04,15,02,9.60
2021,08,04,15,03,20.90
2021,08,04,15,04,16.10
2021,08,04,15,05,22.50
2021,08,04,15,06,24.20
2021,08,04,15,07,19.30
2021,08,04,15,08,20.90
2021,08,04,15,09,16.10
2021,08,04,15,10,19.30
2021,08,04,15,11,19.30
2021,08,04,15,12,17.70
2021,08,04,15,13,24.20
2021,08,04,15,14,22.50
2021,08,04,15,15,22.50
2021,08,04,15,16,24.20
2021,08,04,15,17,20.90
2021,08,04,15,18,17.70
2021,08,04,15,19,19.30
2021,08,04,15,20,20.90
2021,08,04,15,21,20.90
2021,08,04,15,22,12.90
2021,08,04,15,23,19.30
2021,08,04,15,24,20.90
2021,08,04,15,25,20.90
2021,08,04,15,26,17.70
2021,08,04,15,27,20.90
2021,08,04,15,28,24.20
2021,08,04,15,29,20.90
2021,08,04,15,30,19.30
2021,08,04,15,31,17.70
2021,08,04,15,32,11.30
2021,08,04,15,33,9.60
2021,08,04,15,34,12.90
2021,08,04,15,35,20.90
2021,08,04,15,36,17.70
2021,08,04,15,37,19.30
2021,08,04,15,38,19.30
2021,08,04,15,39,17.70
2021,08,04,15,40,17.70
2021,08,04,15,41,14.50
2021,08,04,15,42,16.10
2021,08,04,15,43,14.50
2021,08,04,15,44,11.30
2021,08,04,15,45,8.10
2021,08,04,15,46,9.60
2021,08,04,15,47,6.40
2021,08,04,15,48,9.60
2021,08,04,15,49,14.50
2021,08,04,15,50,14.50
2021,08,04,15,51,14.50
2021,08,04,15,52,11.30
2021,08,04,15,53,11.30
2021,08,04,15,54,11.30
2021,08,04,15,55,16.10
2021,08,04,15,56,14.50
2021,08,04,15,57,11.30
2021,08,04,15,58,8.10
2021,08,04,15,59,9.60
2021,08,04,16,00,11.30
2021,08,04,16,01,16.10
2021,08,04,16,02,16.10
2021,08,04,16,03,11.30
2021,08,04,16,04,14.50
2021,08,04,16,05,14.50
2021,08,04,16,06,11.30
2021,08,04,16,07,16.10
2021,08,04,16,08,17.70
2021,08,04,16,09,19.30
2021,08,04,16,10,19.30
2021,08,04,16,11,16.10
2021,08,04,16,12,22.50
2021,08,04,16,13,11.30
2021,08,04,16,14,11.30
2021,08,04,16,15,22.50
2021,08,04,16,16,22.50
2021,08,04,16,17,14.50
2021,08,04,16,18,16.10
2021,08,04,16,19,19.30
2021,08,04,16,20,20.90
2021,08,04,16,21,17.70
2021,08,04,16,22,17.70
2021,08,04,16,23,22.50
2021,08,04,16,24,22.50
2021,08,04,16,25,20.90
2021,08,04,16,26,17.70
2021,08,04,16,27,24.20
2021,08,04,16,28,19.30
2021,08,04,16,29,20.90
2021,08,04,16,30,24.20
2021,08,04,16,31,25.70
2021,08,04,16,32,20.90
2021,08,04,16,33,22.50
2021,08,04,16,34,16.10
2021,08,04,16,35,19.30
2021,08,04,16,36,17.70
2021,08,04,16,37,20.90
2021,08,04,16,38,17.70
2021,08,04,16,39,16.10
2021,08,04,16,40,9.60
2021,08,04,16,41,17.70
2021,08,04,16,42,16.10
2021,08,04,16,43,19.30
2021,08,04,16,44,19.30
2021,08,04,16,45,11.30
2021,08,04,16,46,9.60
2021,08,04,16,47,20.90
2021,08,04,16,48,17.70
2021,08,04,16,49,20.90
2021,08,04,16,50,17.70
2021,08,04,16,51,22.50
2021,08,04,16,52,20.90
2021,08,04,16,53,19.30
2021,08,04,16,54,19.30
2021,08,04,16,55,16.10
2021,08,04,16,56,22.50
2021,08,04,16,57,12.90
2021,08,04,16,58,24.20
2021,08,04,16,59,17.70
2021,08,04,17,00,22.50
2021,08,04,17,01,22.50
2021,08,04,17,02,19.30
2021,08,04,17,03,22.50
2021,08,04,17,04,20.90
2021,08,04,17,05,17.70
2021,08,04,17,06,19.30
2021,08,04,17,07,20.90
2021,08,04,17,08,19.30
2021,08,04,17,09,17.70
2021,08,04,17,10,19.30
2021,08,04,17,11,16.10
2021,08,04,17,12,17.70
2021,08,04,17,13,20.90
2021,08,04,17,14,17.70
2021,08,04,17,15,22.50
2021,08,04,17,16,22.50
2021,08,04,17,17,22.50
2021,08,04,17,18,22.50
2021,08,04,17,19,22.50
2021,08,04,17,20,24.20
2021,08,04,17,21,19.30
2021,08,04,17,22,19.30
2021,08,04,17,23,17.70
2021,08,04,17,24,17.70
2021,08,04,17,25,12.90
2021,08,04,17,26,12.90
2021,08,04,17,27,17.70
2021,08,04,17,28,19.30
2021,08,04,17,29,12.90
2021,08,04,17,30,16.10
2021,08,04,17,31,11.30
2021,08,04,17,32,20.90
2021,08,04,17,33,20.90
2021,08,04,17,34,16.10
2021,08,04,17,35,14.50
2021,08,04,17,36,8.10
2021,08,04,17,37,9.60
2021,08,04,17,38,14.50
2021,08,04,17,39,16.10
2021,08,04,17,40,16.10
2021,08,04,17,41,12.90
2021,08,04,17,42,14.50
2021,08,04,17,43,6.40
2021,08,04,17,44,11.30
2021,08,04,17,45,11.30
2021,08,04,17,46,17.70
2021,08,04,17,47,16.10
2021,08,04,17,48,14.50
2021,08,04,17,49,16.10
2021,08,04,17,50,14.50
2021,08,04,17,51,14.50
2021,08,04,17,52,8.10
2021,08,04,17,53,12.90
2021,08,04,17,54,17.70
2021,08,04,17,55,12.90
2021,08,04,17,56,16.10
2021,08,04,17,57,14.50
2021,08,04,17,58,17.70
2021,08,04,17,59,16.10
2021,08,04,18,00,16.10
2021,08,04,18,01,9.60
2021,08,04,18,02,9.60
2021,08,04,18,03,8.10
2021,08,04,18,04,9.60
2021,08,04,18,05,11.30
2021,08,04,18,06,8.10
2021,08,04,18,07,14.50
2021,08,04,18,08,9.60
2021,08,04,18,09,8.10
2021,08,04,18,10,11.30
2021,08,04,18,11,11.30
2021,08,04,18,12,6.40
2021,08,04,18,13,11.30
2021,08,04,18,14,16.10
2021,08,04,18,15,14.50
2021,08,04,18,16,11.30
2021,08,04,18,17,14.50
2021,08,04,18,18,11.30
2021,08,04,18,19,14.50
2021,08,04,18,20,11.30
2021,08,04,18,21,9.60
2021,08,04,18,22,11.30
2021,08,04,18,23,16.10
2021,08,04,18,24,11.30
2021,08,04,18,25,11.30
2021,08,04,18,26,8.10
2021,08,04,18,27,8.10
2021,08,04,18,28,6.40
2021,08,04,18,29,8.10
2021,08,04,18,30,9.60
2021,08,04,18,31,9.60
2021,08,04,18,32,8.10
2021,08,04,18,33,9.60
2021,08,04,18,34,6.40
2021,08,04,18,35,8.10
2021,08,04,18,36,8.10
2021,08,04,18,37,9.60
2021,08,04,18,38,9.60
2021,08,04,18,39,9.60
2021,08,04,18,40,8.10
2021,08,04,18,41,6.40
2021,08,04,18,42,8.10
2021,08,04,18,43,6.40
2021,08,04,18,44,8.10
2021,08,04,18,45,6.40
2021,08,04,18,46,6.40
2021,08,04,18,47,6.40
2021,08,04,18,48,8.10
2021,08,04,18,49,6.40
2021,08,04,18,50,6.40
2021,08,04,18,51,4.80
2021,08,04,18,52,9.60
2021,08,04,18,53,8.10
2021,08,04,18,54,8.10
2021,08,04,18,55,9.60
2021,08,04,18,56,8.10
2021,08,04,18,57,9.60
2021,08,04,18,58,6.40
2021,08,04,18,59,9.60
2021,08,04,19,00,9.60
2021,08,04,19,01,9.60
2021,08,04,19,02,11.30
2021,08,04,19,03,9.60
2021,08,04,19,04,8.10
2021,08,04,19,05,8.10
2021,08,04,19,06,4.80
2021,08,04,19,07,4.80
2021,08,04,19,08,9.60
2021,08,04,19,09,9.60
2021,08,04,19,10,8.10
2021,08,04,19,11,6.40
2021,08,04,19,12,6.40
2021,08,04,19,13,8.10
2021,08,04,19,14,8.10
2021,08,04,19,15,8.10
2021,08,04,19,16,8.10
2021,08,04,19,17,9.60
2021,08,04,19,18,9.60
2021,08,04,19,19,11.30
2021,08,04,19,20,11.30
2021,08,04,19,21,9.60
2021,08,04,19,22,6.40
2021,08,04,19,23,6.40
2021,08,04,19,24,6.40
2021,08,04,19,25,8.10
2021,08,04,19,26,11.30
2021,08,04,19,27,9.60
2021,08,04,19,28,9.60
2021,08,04,19,29,9.60
2021,08,04,19,30,11.30
2021,08,04,19,31,11.30
2021,08,04,19,32,14.50
2021,08,04,19,33,11.30
2021,08,04,19,34,11.30
2021,08,04,19,35,11.30
2021,08,04,19,36,9.60
2021,08,04,19,37,8.10
2021,08,04,19,38,9.60
2021,08,04,19,39,9.60
2021,08,04,19,40,9.60
2021,08,04,19,41,11.30
2021,08,04,19,42,9.60
2021,08,04,19,43,9.60
2021,08,04,19,44,11.30
2021,08,04,19,45,8.10
2021,08,04,19,46,11.30
2021,08,04,19,47,11.30
2021,08,04,19,48,9.60
2021,08,04,19,49,8.10
2021,08,04,19,50,9.60
2021,08,04,19,51,12.90
2021,08,04,19,52,11.30
2021,08,04,19,53,9.60
2021,08,04,19,54,11.30
2021,08,04,19,55,16.10
2021,08,04,19,56,9.60
2021,08,04,19,57,6.40
2021,08,04,19,58,9.60
2021,08,04,19,59,14.50
2021,08,04,20,00,14.50
2021,08,04,20,01,11.30
2021,08,04,20,02,11.30
2021,08,04,20,03,9.60
2021,08,04,20,04,6.40
2021,08,04,20,05,8.10
2021,08,04,20,06,8.10
2021,08,04,20,07,6.40
2021,08,04,20,08,8.10
2021,08,04,20,09,8.10
2021,08,04,20,10,8.10
2021,08,04,20,11,4.80
2021,08,04,20,12,6.40
2021,08,04,20,13,4.80
2021,08,04,20,14,3.20
2021,08,04,20,15,4.80
2021,08,04,20,16,4.80
2021,08,04,20,17,4.80
2021,08,04,20,18,4.80
2021,08,04,20,19,3.20
2021,08,04,20,20,4.80
2021,08,04,20,21,4.80
2021,08,04,20,22,6.40
2021,08,04,20,23,6.40
2021,08,04,20,24,6.40
2021,08,04,20,25,6.40
2021,08,04,20,26,4.80
2021,08,04,20,27,8.10
2021,08,04,20,28,8.10
2021,08,04,20,29,6.40
2021,08,04,20,30,6.40
2021,08,04,20,31,6.40
2021,08,04,20,32,6.40
2021,08,04,20,33,8.10
2021,08,04,20,34,6.40
2021,08,04,20,35,4.80
2021,08,04,20,36,4.80
2021,08,04,20,37,6.40
2021,08,04,20,38,4.80
2021,08,04,20,39,4.80
2021,08,04,20,40,6.40
2021,08,04,20,41,8.10
2021,08,04,20,42,4.80
2021,08,04,20,43,6.40
2021,08,04,20,44,4.80
2021,08,04,20,45,6.40
2021,08,04,20,46,8.10
2021,08,04,20,47,8.10
2021,08,04,20,48,6.40
2021,08,04,20,49,9.60
2021,08,04,20,50,6.40
2021,08,04,20,51,6.40
2021,08,04,20,52,6.40
2021,08,04,20,53,6.40
2021,08,04,20,54,8.10
2021,08,04,20,55,8.10
2021,08,04,20,56,6.40
2021,08,04,20,57,4.80
2021,08,04,20,58,6.40
2021,08,04,20,59,4.80
2021,08,04,21,00,4.80
2021,08,04,21,01,4.80
2021,08,04,21,02,4.80
2021,08,04,21,03,4.80
2021,08,04,21,04,6.40
2021,08,04,21,05,4.80
2021,08,04,21,06,4.80
2021,08,04,21,07,4.80
2021,08,04,21,08,4.80
2021,08,04,21,09,4.80
2021,08,04,21,10,4.80
2021,08,04,21,11,6.40
2021,08,04,21,12,6.40
2021,08,04,21,13,6.40
2021,08,04,21,14,4.80
2021,08,04,21,15,6.40
2021,08,04,21,16,8.10
2021,08,04,21,17,6.40
2021,08,04,21,18,4.80
2021,08,04,21,19,8.10
2021,08,04,21,20,4.80
2021,08,04,21,21,6.40
2021,08,04,21,22,9.60
2021,08,04,21,23,6.40
2021,08,04,21,24,6.40
2021,08,04,21,25,4.80
2021,08,04,21,26,8.10
2021,08,04,21,27,6.40
2021,08,04,21,28,4.80
2021,08,04,21,29,8.10
2021,08,04,21,30,6.40
2021,08,04,21,31,6.40
2021,08,04,21,32,6.40
2021,08,04,21,33,3.20
2021,08,04,21,34,4.80
2021,08,04,21,35,4.80
2021,08,04,21,36,4.80
2021,08,04,21,37,4.80
2021,08,04,21,38,3.20
2021,08,04,21,39,4.80
2021,08,04,21,40,4.80
2021,08,04,21,41,3.20
2021,08,04,21,42,4.80
2021,08,04,21,43,3.20
2021,08,04,21,44,3.20
2021,08,04,21,45,4.80
2021,08,04,21,46,3.20
2021,08,04,21,47,3.20
2021,08,04,21,48,4.80
2021,08,04,21,49,6.40
2021,08,04,21,50,6.40
2021,08,04,21,51,6.40
2021,08,04,21,52,4.80
2021,08,04,21,53,4.80
2021,08,04,21,54,6.40
2021,08,04,21,55,4.80
2021,08,04,21,56,4.80
2021,08,04,21,57,4.80
2021,08,04,21,58,4.80
2021,08,04,21,59,4.80
2021,08,04,22,00,1.60
2021,08,04,22,01,3.20
2021,08,04,22,02,6.40
2021,08,04,22,03,6.40
2021,08,04,22,04,6.40
2021,08,04,22,05,4.80
2021,08,04,22,06,4.80
2021,08,04,22,07,3.20
2021,08,04,22,08,4.80
2021,08,04,22,09,6.40
2021,08,04,22,10,4.80
2021,08,04,22,11,3.20
2021,08,04,22,12,4.80
2021,08,04,22,13,4.80
2021,08,04,22,14,1.60
2021,08,04,22,15,4.80
2021,08,04,22,16,4.80
2021,08,04,22,17,4.80
2021,08,04,22,18,4.80
2021,08,04,22,19,3.20
2021,08,04,22,20,4.80
2021,08,04,22,21,4.80
2021,08,04,22,22,3.20
2021,08,04,22,23,6.40
2021,08,04,22,24,3.20
2021,08,04,22,25,4.80
2021,08,04,22,26,4.80
2021,08,04,22,27,1.60
2021,08,04,22,28,3.20
2021,08,04,22,29,4.80
2021,08,04,22,30,1.60
2021,08,04,22,31,3.20
2021,08,04,22,32,1.60
2021,08,04,22,33,3.20
2021,08,04,22,34,4.80
2021,08,04,22,35,3.20
2021,08,04,22,36,8.10
2021,08,04,22,37,6.40
2021,08,04,22,38,3.20
2021,08,04,22,39,3.20
2021,08,04,22,40,3.20
2021,08,04,22,41,3.20
2021,08,04,22,42,3.20
2021,08,04,22,43,4.80
2021,08,04,22,44,3.20
2021,08,04,22,45,1.60
2021,08,04,22,46,1.60
2021,08,04,22,47,4.80
2021,08,04,22,48,6.40
2021,08,04,22,49,3.20
2021,08,04,22,50,1.60
2021,08,04,22,51,6.40
2021,08,04,22,52,6.40
2021,08,04,22,53,4.80
2021,08,04,22,54,3.20
2021,08,04,22,55,3.20
2021,08,04,22,56,1.60
2021,08,04,22,57,3.20
2021,08,04,22,58,4.80
2021,08,04,22,59,4.80
2021,08,04,23,00,1.60
2021,08,04,23,01,3.20
2021,08,04,23,02,3.20
2021,08,04,23,03,3.20
2021,08,04,23,04,3.20
2021,08,04,23,05,1.60
2021,08,04,23,06,1.60
2021,08,04,23,07,1.60
2021,08,04,23,08,1.60
2021,08,04,23,09,1.60
2021,08,04,23,12,1.60
2021,08,04,23,13,3.20
2021,08,04,23,14,4.80
2021,08,04,23,15,3.20
2021,08,04,23,16,4.80
2021,08,04,23,17,4.80
2021,08,04,23,18,4.80
2021,08,04,23,19,4.80
2021,08,04,23,20,4.80
2021,08,04,23,21,3.20
2021,08,04,23,22,1.60
2021,08,04,23,23,3.20
2021,08,04,23,24,3.20
2021,08,04,23,25,3.20
2021,08,04,23,26,1.60
2021,08,04,23,28,1.60
2021,08,04,23,29,1.60
2021,08,04,23,30,1.60
2021,08,04,23,31,1.60
2021,08,04,23,32,1.60
2021,08,04,23,33,3.20
2021,08,04,23,34,1.60
2021,08,04,23,35,1.60
2021,08,04,23,36,4.80
2021,08,04,23,37,4.80
2021,08,04,23,38,4.80
2021,08,04,23,39,1.60
2021,08,04,23,40,3.20
2021,08,04,23,41,3.20
2021,08,04,23,42,6.40
2021,08,04,23,43,6.40
2021,08,04,23,44,1.60
2021,08,04,23,45,1.60
2021,08,04,23,47,1.60
2021,08,04,23,49,1.60
2021,08,04,23,50,1.60
2021,08,04,23,51,1.60
2021,08,04,23,52,1.60
2021,08,04,23,53,3.20
2021,08,04,23,54,3.20
2021,08,04,23,55,1.60
2021,08,04,23,56,1.60
2021,08,04,23,57,1.60
2021,08,04,23,59,3.20
